Weather Roundup
Issued by NWS Corpus Christi, TX

Home | Current Version | Previous Version | Text Only | Print | Product List | Glossary On
Versions: 1 2 3 4 5 6 7 8 9 10 11 12 13 14 15 16 17 18 19 20 21 22 23 24 25 26 27 28 29 30 31 32 33 34 35 36 37 38 39 40 41 42 43 44 45 46 47 48 49 50
000
ASUS44 KCRP 041510
HRRCRP

SOUTH TEXAS REGIONAL WEATHER ROUNDUP
NATIONAL WEATHER SERVICE CORPUS CHRISTI TX
1000 AM CDT SAT JUL 04 2015


TXZ229>244-041600-
...CORPUS CHRISTI AREA OBSERVATIONS...

CITY           SKY/WX    TMP DP  RH WIND       PRES   REMARKS
CORPUS CHRISTI PTSUNNY   85  76  74 SE15      29.99R HX  94
NAS CORPUS CHR MOSUNNY   84  78  82 S13G21    29.99R HX  95
ROCKPORT       PTSUNNY   87  76  69 SE14      29.99R HX  97
KINGSVILLE NAS MOSUNNY   86  78  77 SE10      29.98R HX  98
ALICE          MOSUNNY   85  74  69 SE15      29.98R HX  92
FALFURRIAS     MOSUNNY   84  75  72 SE12G17   29.97S HX  92
$$

...VICTORIA AREA OBSERVATIONS...

CITY           SKY/WX    TMP DP  RH WIND       PRES   REMARKS
VICTORIA       PTSUNNY   87  77  72 S9        30.02R HX  99
BEEVILLE       PTSUNNY   84  79  83 SE15      30.00R HX  96
PLEASANTON     PTSUNNY   84  72  66 SE10      30.01R HX  90
SAN ANTONIO    PTSUNNY   82  72  71 S9        30.03R
$$

...LAREDO AREA OBSERVATIONS...

CITY           SKY/WX    TMP DP  RH WIND       PRES   REMARKS
LAREDO         MOSUNNY   84  71  65 SE14      29.98R
COTULLA        MOSUNNY   83  73  72 S12       29.98S
DEL RIO        CLOUDY    77  71  82 SE9       29.98R
MCALLEN        MOSUNNY   87  75  67 SE16      29.96R HX  96
HEBBRONVILLE     N/A     82  73  73 SE13      29.99R
$$

...OTHER TEXAS OBSERVATIONS...

CITY           SKY/WX    TMP DP  RH WIND       PRES   REMARKS
BROWNSVILLE    PTSUNNY   85  76  74 SE20      29.98R HX  94
HOUSTON        PTSUNNY   86  76  71 SW9       30.03S HX  96
COL. STATION   MOSUNNY   82  75  79 S10       30.04S
AUSTIN         PTSUNNY   81  74  79 SW12      30.02R
WACO           PTSUNNY   83  72  69 S15       30.01S
FORT WORTH     MOSUNNY   84  71  65 SW12      29.98R
WICHITA FALLS  SUNNY     85  69  58 SW12      29.96S
LUBBOCK        MOSUNNY   79  65  62 SW13      30.08R
EL PASO        PTSUNNY   81  59  47 E9        30.06R
$$

...MARINE OBSERVATIONS...

STATION/POSITION TIME  SKY/WX   TEMP    WIND        PRES    VSBY  WAVE   SWELL
                                AIR SEA DIR/SP/G                  HT/PER HT/PER
                 (UTC)          (F)     (DEG/KT/KT) (MB)    (MI)  (FT/S) (FT/S)
PORT ARANSAS     1400            82 82  150/ 10/ 11 1016.1R
BUOY 90 E PORT A NOT AVBL
BUOY 45 SE BAFFI 1450            83 82  160/ 16/ 17 1015.0R         4/ 6
BUOY 200 E PT IS 1450            84 84  140/ 14/ 16 1017.3R         3/ 5   2/13
BUOY 15 E GALVES 1450            84 83  180/ 10/ 12 1016.9R         3/ 5   2/ 5
$$


USA.gov is the U.S. government's official web portal to all federal, state and local government web resources and services.